Tracking 19827 objects as of 21-Aug-2019
HD Live streaming from Space Station
objects crossing your sky now

FENGYUN 1C DEB

Track FENGYUN 1C DEB now!
10-day predictions


NORAD ID: 30398
Int'l Code: 1999-025ADM
Perigee: 855.2 km
Apogee: 1,117.7 km
Inclination: 99.8 °
Period: 104.7 minutes
Semi major axis: 7357 km
RCS: 0.0135 m2 (small)
Launch date: May 10, 1999
Source: People's Republic of China (PRC)
Launch site: Taiyaun Space Center, China (TSC)

Note: This is SATELLITE DEBRIS
aabbcc
Your satellite tracking list
Your tracking list is empty




NASA's NSSDC Master Catalog

Two Line Element Set (TLE):
1 30398U 99025ADM 19232.91121265 +.00000050 +00000-0 +88549-4 0  9995
2 30398 099.8083 027.1777 0178383 147.5980 004.6242 13.75662181630295
Source of the keplerian elements: AFSPC